Location: Chippewa Lake
(41.0698°N, 81.9010°W)
Time: 22:04:07
(UTC+00:00)

Intercosmos 25 Rocket - Pass Details

Date: 09 May 2021
Orbit: 435 x 2984 km, 82.6° (Epoch: 16 June)

Event Time Altitude Azimuth Distance (km) Brightness Sun altitude
Rises 02:00:19 0° 349° (N) 4,252 8.7 -14.9°
Reaches altitude 10° 02:03:41 10° 347° (NNW) 2,889 7.8 -15.4°
Maximum altitude 02:09:44 59° 269° (W) 833 4.4 -16.2°
Enters shadow 02:13:09 13° 191° (S) 1,675 5.5 -16.7°
